User: anonymous
Location: Maiden
(35.5760°N, 81.2120°W)
Time: 16:30:28
(UTC-04:00)
Language:

Cosmos 2151 - Orbit

View from above orbital plane
View from above orbital plane
View from above satellite
View from above satellite

Ground track
Ground track

The orbit data is extracted from the following two-line orbital elements,

1 21422U 91042A   14209.03923623  .00000779  00000-0  77756-4 0  9596
2 21422 082.5030 169.6797 0014197 208.7405 151.3033 14.90198609251241
Epoch (UTC): 28 July 2014 00:56:30
Eccentricity: 0.0014197
inclination: 82.5030°
perigee height: 587 km
apogee height: 607 km
right ascension of ascending node: 169.6797°
argument of perigee: 208.7405°
revolutions per day: 14.90198609
mean anomaly at epoch: 151.3033°
orbit number at epoch: 25124

The dashed part of the orbit path shows where the satellite is in the earth's shadow,  

DLR